Helicity
45 66 79 138 149 149 243 273 172 158 151 191 115 79 122 92 81 76 87 86 69 101 103 104 100 85 44 64 90 71 35 17 32 50 81 -56 -28 -22 -23 8 23 45 43 56
38 76 93 157 123 154 219 248 287 253 223 182 152 117 113 92 101 99 87 78 86 94 93 97 96 114 138 168 189 106 3 52 18 -21 3 22 -22 -36 -27 -30 -20 12 94 104
71 -5 -9 46 85 112 75 107 179 177 195 96 127 125 120 105 128 119 96 91 88 79 87 85 116 142 143 167 142 83 81 36 43 21 53 79 51 -22 -35 -22 -30 -30 -22 -29
79 0 28 10 -9 10 103 105 152 166 169 121 115 110 108 97 115 112 102 92 84 75 70 65 88 96 115 128 104 53 41 42 35 47 49 79 103 111 75 66 60 4 1 -22
46 32 47 5 -19 -8 8 10 38 133 114 125 109 104 100 134 144 119 101 81 69 56 66 61 62 67 69 88 90 68 49 44 33 31 54 48 46 69 110 129 143 109 80 18
75 35 20 -4 1 17 26 16 14 18 52 105 123 93 106 24 70 77 91 83 64 49 56 52 56 53 42 62 65 59 48 50 49 41 36 44 48 65 77 99 114 141 154 102
126 65 40 56 54 42 -8 -6 19 -1 22 62 115 107 16 18 41 60 79 81 68 55 54 54 45 43 31 39 46 48 36 39 43 43 40 37 37 41 52 55 53 68 78 84
67 47 -1 67 55 33 34 26 20 23 32 61 67 33 48 40 50 75 79 72 72 68 57 55 47 43 38 30 35 37 40 45 47 49 55 53 49 42 45 47 63 77 80 92
117 63 38 56 53 27 25 16 1 -11 0 12 22 37 46 53 61 78 84 77 72 75 55 45 54 50 42 28 24 30 35 40 45 47 52 56 63 63 64 61 61 55 49 56
65 7 127 86 92 73 48 60 49 29 3 6 30 27 34 58 69 77 73 75 71 77 67 53 68 71 64 51 48 57 53 46 49 56 61 63 66 70 70 67 63 61 63 65
137 72 46 44 54 4 54 62 21 2 13 37 52 50 70 64 78 93 93 92 102 106 99 87 87 95 97 95 94 86 81 76 76 83 93 99 104 98 101 89 77 75 70 68
107 69 68 67 95 90 40 0 -33 -11 -40 -13 31 42 53 64 80 110 115 122 121 121 119 102 108 109 110 117 119 113 108 105 94 93 89 96 100 101 101 100 103 106 93 86
145 137 143 78 53 64 39 30 38 21 21 23 49 60 54 75 92 100 115 129 148 163 158 137 134 123 119 134 143 130 125 129 131 129 128 126 121 117 119 102 103 106 106 103
99 123 66 100 68 58 50 23 6 22 39 43 33 38 39 56 96 123 120 146 171 172 152 147 153 144 162 187 194 173 159 130 162 154 150 146 140 127 128 132 123 117 100 102
115 137 86 74 54 37 32 38 39 43 56 48 59 52 59 57 84 91 92 104 125 149 148 156 177 142 179 214 226 212 199 182 177 164 156 146 149 143 147 140 131 128 126 122
111 96 92 80 53 60 69 68 73 74 70 73 70 79 72 65 67 71 77 94 134 133 156 173 178 147 183 223 230 223 200 166 174 190 185 189 193 198 192 180 170 161 154 153
157 104 95 85 110 121 115 97 93 93 85 76 66 63 65 71 75 73 71 80 96 104 132 168 161 183 214 259 288 294 299 267 212 245 240 230 231 219 211 207 191 180 166 161
165 194 176 155 113 101 88 78 74 69 71 59 50 49 52 54 54 65 75 71 72 75 111 128 164 195 219 238 269 297 322 299 314 299 293 289 264 248 240 227 214 204 190 185
172 174 133 101 90 86 75 74 65 54 48 51 53 51 59 64 54 53 61 67 87 95 115 149 143 178 194 202 255 297 306 304 296 293 295 251 250 259 264 248 224 209 203 200
165 162 124 104 68 65 46 28 29 35 39 48 49 59 64 68 68 64 68 64 103 140 127 106 108 127 148 168 191 284 310 313 309 306 324 329 316 297 269 224 232 220 219 211
169 152 121 101 81 46 35 34 37 38 36 58 63 61 51 59 75 77 85 93 120 87 84 79 96 113 134 147 179 235 281 280 275 278 296 307 322 313 295 268 261 243 216 208
166 137 105 108 82 55 24 11 39 41 42 45 42 45 45 67 76 66 74 86 82 73 89 100 115 115 140 134 214 230 240 243 245 259 275 286 322 316 289 270 268 268 247 206
117 113 81 64 64 50 16 -3 24 30 44 40 47 59 72 81 69 67 40 23 58 71 78 83 81 89 121 183 236 232 239 237 221 226 246 265 282 281 266 253 258 332 276 167
113 85 53 42 28 39 39 23 27 34 47 50 63 72 76 67 36 50 69 54 63 81 88 93 85 86 116 189 228 240 224 196 199 217 237 221 231 233 237 234 249 265 208 154
123 161 157 96 36 32 39 31 47 56 61 72 72 74 48 51 78 79 82 81 66 84 102 101 98 95 130 172 211 221 200 188 218 230 212 188 193 199 194 195 211 221 164 136
104 133 150 115 64 34 77 77 68 89 88 91 88 78 65 81 80 73 76 49 55 50 83 99 104 117 141 150 176 190 195 213 193 168 169 175 189 173 161 160 144 105 122 152
112 102 119 130 113 92 106 111 121 104 114 116 97 90 78 81 70 45 40 56 64 70 95 122 138 137 149 168 191 211 211 195 177 176 167 158 155 141 136 105 103 134 153 166
Wind_Speed
32 34 35 35 36 39 42 43 36 30 29 30 26 23 8 13 14 10 9 3 6 6 13 24 24 23 23 22 16 2 19 16 34 38 37 24 22 20 20 11 15 25 33 46
27 30 32 34 38 40 39 37 38 32 33 29 28 17 14 15 17 15 13 11 9 5 12 18 22 20 20 24 24 16 29 35 35 29 20 37 31 27 26 25 23 17 21 34
27 24 26 28 32 36 33 32 29 27 24 18 14 14 15 20 21 19 17 13 12 9 9 11 16 19 22 24 29 29 34 37 38 37 38 32 32 32 30 28 27 24 21 15
26 20 30 34 26 26 25 24 26 25 21 13 16 22 26 28 27 24 20 17 14 11 10 9 11 16 18 22 28 30 30 32 37 41 40 37 38 35 35 31 30 24 22 22
28 25 25 22 30 27 22 14 15 19 19 18 36 33 32 31 33 29 24 21 17 15 15 11 9 12 18 20 26 34 30 31 33 38 45 48 48 46 44 45 41 36 31 27
26 24 26 27 26 26 29 23 27 21 22 33 39 31 30 30 34 30 26 23 20 17 20 17 12 20 22 28 36 45 44 41 42 46 48 49 49 51 50 52 53 54 52 45
25 23 19 18 24 32 36 37 27 26 30 38 36 32 28 31 31 28 25 22 20 19 18 18 19 22 25 32 40 36 39 41 45 48 49 49 49 48 48 50 50 52 55 55
28 26 26 32 32 30 26 26 24 25 29 32 31 30 32 33 28 23 21 17 17 16 16 18 24 29 33 39 36 38 43 45 45 46 47 45 45 44 44 45 46 48 49 49
25 24 25 26 27 28 26 27 26 27 28 28 29 30 33 32 26 18 14 12 12 12 14 18 21 27 33 36 38 40 41 43 44 44 46 45 43 41 40 40 39 40 40 41
15 21 26 31 30 32 32 33 31 29 29 27 28 28 27 20 14 7 5 5 8 11 10 13 19 22 26 30 33 35 38 40 41 42 42 42 41 39 38 37 35 34 34 35
24 38 35 41 25 4 11 10 12 21 23 24 16 20 16 12 8 4 0 4 7 6 8 10 17 17 22 25 29 32 34 35 37 37 37 38 39 38 36 36 32 30 29 28
9 1 2 17 16 19 31 10 35 17 35 23 8 16 9 10 9 11 12 14 14 15 17 17 20 20 22 24 27 31 33 33 34 35 34 34 35 37 37 37 37 35 30 31
12 22 26 34 24 37 35 39 41 52 53 47 45 41 35 28 26 25 23 22 21 21 23 25 26 29 29 28 30 33 36 37 36 36 36 36 35 35 38 35 34 34 34 33
18 24 29 31 37 34 39 51 60 52 40 34 39 47 44 38 33 27 26 24 26 27 28 29 30 30 30 28 28 31 33 34 36 37 37 37 37 38 38 39 41 39 38 38
22 19 23 44 49 53 59 57 56 53 52 50 41 39 44 39 31 26 28 29 28 28 31 33 32 33 32 29 29 32 34 36 37 39 40 41 42 42 43 43 44 45 44 42
34 34 39 43 52 48 44 43 43 48 49 48 46 49 51 48 45 44 44 42 39 38 39 39 40 38 38 37 36 39 40 41 41 41 42 42 42 44 45 47 50 51 51 49
37 47 44 41 37 38 40 42 44 47 48 49 51 53 54 53 52 50 49 45 41 36 35 35 34 41 42 41 41 41 42 41 41 42 44 45 47 49 50 52 54 54 54 49
27 27 26 26 30 34 39 43 45 48 51 52 53 53 55 61 65 65 61 59 58 53 44 38 41 43 44 44 43 44 44 46 46 47 48 49 50 51 52 54 55 56 55 52
15 16 20 25 29 36 43 47 48 50 54 56 59 61 60 62 66 67 67 66 65 65 61 55 56 52 50 48 46 43 42 44 46 48 49 50 50 51 52 54 56 55 54 53
12 11 18 29 38 41 47 47 49 49 53 56 59 61 63 63 62 65 67 69 64 61 64 65 59 53 49 45 39 38 40 42 45 47 46 48 49 51 52 52 52 51 50 49
11 18 25 35 43 47 53 57 57 60 57 56 61 64 66 66 65 65 67 69 65 63 61 60 61 57 51 47 43 40 40 41 43 44 46 47 48 49 50 49 48 47 47 47
15 26 33 38 47 56 56 59 60 66 67 66 64 61 62 64 64 64 60 63 63 62 64 65 63 61 57 52 45 42 41 41 42 42 44 44 43 43 44 44 43 44 44 41
20 29 38 45 51 58 60 62 68 70 69 65 61 61 61 62 62 68 72 59 63 66 68 69 69 65 59 52 46 43 42 43 42 43 42 37 35 35 35 34 28 32 31 37
34 37 46 53 57 65 75 73 69 67 66 65 64 61 61 66 65 56 57 66 72 73 72 69 69 66 60 51 46 43 42 41 41 39 35 30 30 29 28 24 18 18 21 20
45 52 55 60 68 76 79 79 72 66 65 65 67 65 62 60 61 65 65 67 69 71 70 68 70 65 58 52 45 41 38 36 36 34 31 30 27 27 24 19 14 11 13 23
59 68 64 67 73 79 83 80 77 69 66 66 65 66 66 61 58 60 65 67 68 68 65 65 64 59 54 48 41 36 32 32 32 30 28 29 26 25 22 14 9 10 14 20
86 82 76 80 80 83 82 79 75 67 61 63 66 62 60 58 58 62 65 64 63 63 62 62 61 57 53 46 39 34 31 30 29 28 28 28 23 19 17 14 12 14 14 15
Wind_Direction
202 214 218 213 207 193 183 192 196 204 213 229 223 221 148 77 81 103 113 134 70 17 54 58 52 45 10 12 7 271 153 137 11 354 326 159 129 135 143 96 357 330 317 303
219 212 205 208 209 200 194 192 200 209 226 227 219 139 95 101 116 134 137 132 112 95 76 67 62 54 49 49 63 83 111 119 117 119 161 77 88 113 139 153 157 131 2 329
204 197 233 202 174 170 171 174 176 183 191 178 149 131 140 147 150 161 162 156 137 118 93 81 75 76 71 64 77 89 101 108 107 107 106 115 110 106 116 118 122 132 135 115
199 205 161 149 183 165 165 179 178 186 185 132 131 158 174 182 176 180 169 162 153 142 122 105 92 89 89 84 84 90 96 103 100 96 96 98 94 99 102 111 108 135 129 118
178 196 208 179 126 113 109 126 123 177 183 167 191 200 213 195 174 174 167 159 150 139 123 121 120 105 99 96 93 92 96 100 98 93 86 84 86 88 92 87 84 92 105 122
204 175 146 118 98 75 53 68 65 84 149 163 177 172 201 193 159 161 155 146 142 131 110 111 121 105 100 92 84 76 79 84 84 81 80 80 82 81 83 81 80 80 84 98
146 133 151 140 92 89 62 56 111 138 176 165 161 175 182 155 171 161 155 141 130 117 114 107 101 97 91 80 69 76 73 70 66 63 64 66 70 75 76 76 76 74 72 72
81 82 85 101 70 75 120 153 166 168 174 168 179 184 183 184 176 157 153 131 118 107 104 98 80 67 62 52 59 56 47 45 46 45 46 52 53 56 59 61 60 58 57 53
117 125 169 149 171 182 178 203 198 200 197 190 189 190 196 198 186 165 144 132 104 93 75 64 62 52 40 36 34 35 33 31 31 30 27 27 31 34 38 40 42 43 43 43
133 154 201 211 197 209 208 215 214 206 203 195 200 200 198 187 177 145 117 111 64 43 42 39 35 34 30 28 26 24 20 19 19 18 18 18 20 23 25 25 28 30 31 31
215 231 227 230 213 187 108 104 161 198 202 208 201 205 200 199 197 198 303 8 8 3 1 3 9 12 13 12 11 8 7 8 8 9 10 10 10 11 12 12 16 17 19 20
212 228 270 350 359 349 337 239 233 258 232 221 255 227 250 265 288 313 320 331 331 330 333 334 340 342 346 350 352 351 350 352 353 355 356 358 358 359 1 1 1 3 7 5
261 325 324 323 323 321 323 325 324 316 315 318 315 316 318 314 309 310 313 314 314 315 319 324 326 327 329 332 334 335 336 338 339 340 340 341 341 342 340 347 351 351 352 352
253 307 309 318 321 327 323 317 313 317 320 316 316 316 314 314 313 305 304 304 311 313 315 317 319 318 319 321 322 324 327 328 329 330 330 331 330 330 331 330 329 332 336 336
297 289 298 316 314 314 313 316 316 318 318 317 320 320 321 321 318 311 312 313 312 311 311 314 313 311 316 314 312 315 319 320 322 324 324 324 323 323 323 322 321 321 323 324
307 306 308 311 313 319 326 331 334 330 327 325 324 321 321 322 321 320 318 318 315 312 312 311 310 309 313 311 308 311 313 315 317 317 317 316 315 315 314 313 313 312 312 313
297 302 305 310 318 326 331 333 334 334 334 332 327 325 324 324 324 324 323 323 320 315 312 309 299 311 311 310 306 305 308 309 309 310 309 309 309 308 308 308 307 306 306 308
293 309 315 318 321 326 330 330 333 332 331 332 331 331 328 320 316 318 323 324 324 324 323 318 317 316 314 311 308 306 304 304 305 303 306 306 306 306 306 305 304 303 304 305
280 301 312 319 327 327 326 326 329 329 328 327 325 323 325 323 320 318 318 320 321 321 325 328 326 324 320 317 314 310 306 305 305 305 305 307 307 308 307 306 305 304 304 303
292 314 327 323 322 326 326 328 329 330 328 327 323 322 322 322 324 322 320 320 322 325 326 327 330 329 326 324 320 317 313 310 309 308 306 305 306 307 307 306 305 304 302 302
285 309 317 318 319 323 324 325 327 325 326 326 323 320 318 320 322 324 324 324 328 330 332 333 332 333 333 330 327 321 317 315 313 310 309 307 309 309 309 308 306 304 303 302
308 310 313 317 320 321 325 325 324 320 318 319 320 322 323 323 326 327 329 327 331 333 332 331 331 331 331 330 327 323 320 317 316 315 313 311 311 314 315 314 309 305 303 304
309 313 314 316 320 321 325 324 317 314 315 316 319 322 324 326 328 327 327 334 333 332 331 330 331 331 330 328 325 323 322 319 318 317 317 317 317 318 321 321 316 309 306 302
307 313 313 315 317 317 314 318 315 314 314 313 316 321 324 325 328 332 332 329 328 328 329 331 332 332 331 329 326 324 322 320 319 319 319 319 321 324 327 330 328 324 316 313
301 306 309 310 311 310 311 311 312 313 313 313 315 319 323 327 327 329 331 331 332 332 333 335 335 335 335 333 329 326 325 323 321 321 320 321 324 328 332 330 327 330 329 323
298 303 305 303 303 305 307 308 307 309 311 313 316 318 321 325 327 329 329 330 332 335 337 339 340 341 341 339 337 333 331 329 327 324 324 324 328 331 337 347 355 354 344 335
294 300 302 299 298 302 305 304 304 307 310 312 315 319 322 324 327 328 329 332 335 338 340 342 344 345 344 344 343 340 337 335 333 331 330 330 336 341 348 0 11 4 2 358